Flag for Austria Weather past 2 weeks in Hollabrunn, Lower Austria, Austria

Now
37 °F

Chilly.


Feels Like: 35 °F
Forecast: 32 / 44 °F
Wind: 3 mph from Southwest

Location: Retz

Current Time: Mar 4, 2015 at 4:22:15 AM

Latest Report: Mar 4, 2015 at 3:00 AM


Visibility: N/A

Pressure: 30.11 "Hg

Humidity: 60%

Dew point: 24 °F

Location of HollabrunnLocation

Historic Weather in Hollabrunn — Graph

°F

Hollabrunn temperature yesterday

Maximum temperature yesterday: 47 °F (at 3:00 PM)
Minimum temperature yesterday: 36 °F (at 7:00 AM)
Average temperature yesterday: 40 °F

Past Weeks' High & Low Weather Summary

 TemperatureHumidityPressure
High49 °F (Mar 2, 10:00 AM)100% (Feb 20, 10:00 AM)30.78 "Hg (Feb 20, 10:00 AM)
Low26 °F (Feb 20, 6:00 AM)43% (Mar 3, 4:00 PM)29.56 "Hg (Feb 23, 4:00 PM)
Average37 °F81%30.05 "Hg
* Reported Feb 17 3:00 AM — Mar 4 3:00 AM, Hollabrunn, Weather by CustomWeather, © 2015

Note: Actual official high and low records may vary slightly from our data, if they occured in-between our weather recording intervals... More about our weather records

Advertising

Hollabrunn weather history for previous 24 hours

 ConditionsComfort  
Time TempWeatherWind HumidityBarometerVisibility
3:00 AM
Wed, Mar 4
37 °FChilly.3 mph60%30.11 "HgN/A
2:00 AM36 °FChilly.3 mph65%30.14 "HgN/A
1:00 AM35 °FChilly.5 mph67%30.16 "HgN/A
12:00 AM33 °FChilly.3 mph73%30.18 "HgN/A
11:00 PM
Tue, Mar 3
38 °FChilly.5 mph61%30.17 "HgN/A
10:00 PM37 °FChilly.5 mph64%30.19 "HgN/A
9:00 PM38 °FChilly.3 mph61%30.20 "HgN/A
8:00 PM38 °FChilly.2 mph61%30.21 "HgN/A
7:00 PM40 °FClear.5 mph57%30.20 "Hg9 mi
6:00 PM42 °FQuite cool.6 mph53%30.19 "HgN/A
5:00 PM45 °FCool.8 mph46%30.18 "HgN/A
4:00 PM46 °FCool.9 mph43%30.16 "HgN/A
3:00 PM47 °FCool.9 mph46%30.16 "HgN/A
2:00 PM47 °FCool.9 mph47%30.16 "HgN/A
1:00 PM45 °FPassing clouds.9 mph44%30.17 "Hg25 mi
12:00 PM44 °FQuite cool.13 mph45%30.18 "HgN/A
11:00 AM42 °FQuite cool.13 mph50%30.17 "HgN/A
10:00 AM40 °FChilly.10 mph58%30.18 "HgN/A
9:00 AM39 °FChilly.13 mph59%30.16 "HgN/A
8:00 AM37 °FChilly.8 mph65%30.14 "HgN/A
7:00 AM36 °FPassing clouds.12 mph67%30.11 "Hg11 mi
6:00 AM37 °FChilly.12 mph68%30.09 "HgN/A
5:00 AM36 °FChilly.12 mph64%30.06 "HgN/A
4:00 AM36 °FChilly.12 mph67%30.05 "HgN/A
Weather by CustomWeather, © 2015

See weather overviewHow to use our weather pages